N4PWG Weather Reports


time (UTC)temp
C
wind
direction
speed
KPH
gust
KPH
rain 1hr
cm
rain 24hr
cm
rain mn
cm
humidity
%
barometer
mb
20260510202804 26 35 3.2 4.8 0.00 0.00 0.00 64 1032.9
20260510202300 26 37 8.0 11.3 0.00 0.00 0.00 61 1032.9
20260510201757 26 40 0.0 1.6 0.00 0.00 0.00 63 1032.9
20260510201254 26 31 0.0 0.0 0.00 0.00 0.00 62 1032.9
20260510200750 25 45 1.6 1.6 0.00 0.00 0.00 61 1033.1
20260510200248 25 73 0.0 1.6 0.00 0.00 0.00 57 1033.2
20260510195744 25 63 1.6 1.6 0.00 0.00 0.00 61 1033.2
20260510195241 25 45 4.8 9.7 0.00 0.00 0.00 62 1033.1
20260510194740 25 325 1.6 1.6 0.00 0.00 0.00 63 1033.2
20260510194237 25 43 1.6 3.2 0.00 0.00 0.00 64 1033.2
20260510193733 25 64 0.0 0.0 0.00 0.00 0.00 64 1033.3
20260510193228 25 58 1.6 1.6 0.00 0.00 0.00 63 1033.3
20260510192724 25 77 0.0 0.0 0.00 0.00 0.00 65 1033.4
20260510192219 25 67 0.0 1.6 0.00 0.00 0.00 62 1033.5
20260510191715 25 62 1.6 3.2 0.00 0.00 0.00 62 1033.7
20260510191212 25 36 6.4 8.0 0.00 0.00 0.00 62 1033.6
20260510190710 25 63 4.8 4.8 0.00 0.00 0.00 63 1033.7
20260510190207 25 63 0.0 1.6 0.00 0.00 0.00 63 1033.3
20260510185703 25 82 1.6 3.2 0.00 0.00 0.00 62 1033.3
20260510185202 25 41 1.6 1.6 0.00 0.00 0.00 63 1033.3
20260510184658 25 81 0.0 1.6 0.00 0.00 0.00 64 1033.1
20260510184154 26 63 1.6 1.6 0.00 0.00 0.00 62 1033.2
20260510183649 26 82 1.6 3.2 0.00 0.00 0.00 63 1033.2
20260510183144 26 66 1.6 3.2 0.00 0.00 0.00 61 1033.3
20260510182641 26 47 8.0 9.7 0.00 0.00 0.00 64 1033.3
20260510182137 26 36 1.6 3.2 0.00 0.00 0.00 66 1033.3
20260510181634 25 4 0.0 0.0 0.00 0.00 0.00 65 1033.1
20260510181131 25 81 1.6 3.2 0.00 0.00 0.00 67 1033.2
20260510180627 25 67 1.6 1.6 0.00 0.00 0.00 65 1033.3
20260510180125 26 71 8.0 9.7 0.00 0.00 0.00 66 1033.3
20260510175620 26 59 4.8 4.8 0.00 0.00 0.00 65 1033.2
20260510175116 26 60 1.6 1.6 0.00 0.00 0.00 60 1033.3
20260510174614 26 66 3.2 3.2 0.00 0.00 0.00 58 1033.1
20260510174111 27 17 1.6 1.6 0.00 0.00 0.00 57 1033.1
20260510173607 27 332 1.6 3.2 0.00 0.00 0.00 58 1033.2
20260510173104 27 45 6.4 8.0 0.00 0.00 0.00 58 1033.2
20260510172559 27 241 1.6 1.6 0.00 0.00 0.00 56 1033.2
20260510172055 27 343 0.0 1.6 0.00 0.00 0.00 59 1033.4
20260510171552 26 325 1.6 1.6 0.00 0.00 0.00 59 1033.4
20260510171050 26 50 6.4 8.0 0.00 0.00 0.00 59 1033.7
20260510170546 26 63 1.6 1.6 0.00 0.00 0.00 58 1033.5
20260510170043 26 26 0.0 1.6 0.00 0.00 0.00 57 1033.6
20260510165538 26 35 4.8 4.8 0.00 0.00 0.00 59 1033.5
20260510165035 26 9 6.4 9.7 0.00 0.00 0.00 59 1033.7
20260510164532 25 30 1.6 1.6 0.00 0.00 0.00 61 1033.8
20260510164029 26 52 4.8 4.8 0.00 0.00 0.00 59 1033.8
20260510163524 26 23 3.2 4.8 0.00 0.00 0.00 58 1033.6
20260510163020 26 49 4.8 8.0 0.00 0.00 0.00 61 1033.6
20260510162516 26 5 3.2 3.2 0.00 0.00 0.00 59 1033.8
20260510162012 27 0 4.8 8.0 0.00 0.00 0.00 61 1033.7
20260510161508 27 3 0.0 1.6 0.00 0.00 0.00 60 1033.7
20260510161005 27 349 1.6 1.6 0.00 0.00 0.00 59 1033.6
20260510160503 27 342 0.0 0.0 0.00 0.00 0.00 59 1033.8
20260510160001 26 343 0.0 1.6 0.00 0.00 0.00 64 1033.7
20260510155458 26 313 1.6 1.6 0.00 0.00 0.00 61 1033.6
20260510154955 27 42 3.2 3.2 0.00 0.00 0.00 56 1033.7
20260510154451 27 252 0.0 1.6 0.00 0.00 0.00 59 1033.7
20260510153949 27 281 1.6 1.6 0.00 0.00 0.00 58 1033.7
20260510153446 27 267 1.6 1.6 0.00 0.00 0.00 60 1033.6
20260510152943 26 53 0.0 1.6 0.00 0.00 0.00 61 1033.5
20260510152440 26 327 0.0 0.0 0.00 0.00 0.00 59 1033.5
20260510151937 26 343 0.0 1.6 0.00 0.00 0.00 58 1033.6
20260510151434 25 36 0.0 0.0 0.00 0.00 0.00 60 1033.6
20260510150930 25 38 0.0 0.0 0.00 0.00 0.00 59 1033.2
20260510150426 25 244 1.6 1.6 0.00 0.00 0.00 62 1033.3
20260510145922 25 297 1.6 1.6 0.00 0.00 0.00 62 1033.1
20260510145419 25 61 1.6 1.6 0.00 0.00 0.00 61 1033.2
20260510144915 25 296 0.0 0.0 0.00 0.00 0.00 63 1033.0
20260510144413 24 314 0.0 0.0 0.00 0.00 0.00 63 1033.1
20260510143913 24 301 1.6 3.2 0.00 0.00 0.00 63 1032.9
20260510143409 24 284 0.0 0.0 0.00 0.00 0.00 63 1032.9
20260510142906 24 11 0.0 0.0 0.00 0.00 0.00 63 1033.1
20260510142402 23 5 0.0 0.0 0.00 0.00 0.00 65 1033.3
20260510141859 22 312 1.6 1.6 0.00 0.00 0.00 67 1033.2
20260510141357 23 226 0.0 1.6 0.00 0.00 0.00 64 1033.0
20260510140853 22 352 0.0 0.0 0.00 0.00 0.00 68 1033.2
20260510140350 22 355 0.0 0.0 0.00 0.00 0.00 70 1033.1
20260510135849 22 70 0.0 1.6 0.00 0.00 0.00 70 1033.1
20260510135345 21 305 3.2 3.2 0.00 0.00 0.00 71 1033.1
20260510134842 21 141 1.6 1.6 0.00 0.00 0.00 73 1033.0
20260510134339 21 269 0.0 0.0 0.00 0.00 0.00 73 1033.2
20260510133835 20 353 0.0 0.0 0.00 0.00 0.00 77 1033.3
20260510133331 19 58 1.6 1.6 0.00 0.00 0.00 77 1033.0
20260510132827 18 98 0.0 1.6 0.00 0.00 0.00 80 1033.0
20260510132325 18 8 0.0 0.0 0.00 0.00 0.00 79 1033.0
20260510131822 18 264 0.0 1.6 0.00 0.00 0.00 78 1032.8
20260510131320 18 278 1.6 1.6 0.00 0.00 0.00 79 1032.9
20260510130816 17 3 0.0 0.0 0.00 0.00 0.00 82 1033.0
20260510130313 17 358 0.0 0.0 0.00 0.00 0.00 86 1032.9
20260510125809 16 357 0.0 0.0 0.00 0.00 0.00 87 1032.8
20260510125307 16 3 0.0 0.0 0.00 0.00 0.00 89 1032.9
20260510124803 16 20 0.0 0.0 0.00 0.00 0.00 91 1033.1
20260510124300 15 18 0.0 0.0 0.00 0.00 0.00 93 1033.1
20260510123755 15 20 0.0 0.0 0.00 0.00 0.00 93 1032.9
20260510123251 15 340 0.0 0.0 0.00 0.00 0.00 93 1033.0
20260510122747 14 14 0.0 0.0 0.00 0.00 0.00 95 1033.2
20260510122244 14 355 0.0 0.0 0.00 0.00 0.00 96 1033.0
20260510121740 13 12 0.0 0.0 0.00 0.00 0.00 97 1033.0
20260510121238 13 3 0.0 0.0 0.00 0.00 0.00 98 1032.6
20260510120735 13 21 0.0 0.0 0.00 0.00 0.00 98 1032.7
20260510120232 12 7 0.0 0.0 0.00 0.00 0.00 99 1032.7
20260510115727 12 22 0.0 0.0 0.00 0.00 0.00 99 1032.9
20260510115226 12 356 0.0 0.0 0.00 0.00 0.00 99 1032.7
20260510114720 12 352 0.0 0.0 0.00 0.00 0.00 99 1032.6
20260510114218 12 26 0.0 0.0 0.00 0.00 0.00 99 1032.3
20260510113713 11 357 0.0 0.0 0.00 0.00 0.00 99 1032.4
20260510113210 11 8 0.0 0.0 0.00 0.00 0.00 99 1032.5
20260510112706 11 6 0.0 0.0 0.00 0.00 0.00 99 1032.1
20260510112204 11 21 0.0 0.0 0.00 0.00 0.00 99 1032.0
20260510111659 11 21 0.0 0.0 0.00 0.00 0.00 99 1031.8
20260510111156 11 16 0.0 0.0 0.00 0.00 0.00 99 1031.8
20260510110656 11 337 0.0 0.0 0.00 0.00 0.00 99 1031.7
20260510110154 11 42 0.0 0.0 0.00 0.00 0.00 99 1031.8
20260510105650 11 285 0.0 1.6 0.00 0.00 0.00 99 1031.6
20260510105149 10 354 0.0 0.0 0.00 0.00 0.00 99 1031.8
20260510104646 11 92 1.6 1.6 0.00 0.00 0.00 99 1031.4
20260510104143 11 357 0.0 0.0 0.00 0.00 0.00 99 1031.3
20260510103640 11 327 0.0 0.0 0.00 0.00 0.00 99 1031.5
20260510103137 11 10 0.0 0.0 0.00 0.00 0.00 99 1031.4
20260510102632 11 23 0.0 0.0 0.00 0.00 0.00 99 1031.6
20260510102128 11 301 1.6 1.6 0.00 0.00 0.00 99 1031.5
20260510101626 10 131 0.0 0.0 0.00 0.00 0.00 99 1031.6
20260510101124 10 73 0.0 1.6 0.00 0.00 0.00 99 1031.3
20260510100620 11 359 0.0 0.0 0.00 0.00 0.00 99 1031.0
20260510100117 11 21 0.0 0.0 0.00 0.00 0.00 99 1031.0
20260510095613 10 340 0.0 0.0 0.00 0.00 0.00 99 1030.8
20260510095113 10 11 0.0 0.0 0.00 0.00 0.00 99 1031.0
20260510094612 10 0 0.0 0.0 0.00 0.00 0.00 99 1030.7
20260510094108 10 13 0.0 0.0 0.00 0.00 0.00 99 1030.7
20260510093604 10 13 0.0 0.0 0.00 0.00 0.00 99 1030.4
20260510093101 10 13 0.0 0.0 0.00 0.00 0.00 99 1030.6
20260510092558 10 8 0.0 0.0 0.00 0.00 0.00 99 1030.5
20260510092057 10 18 0.0 0.0 0.00 0.00 0.00 99 1030.2
20260510091554 11 24 0.0 0.0 0.00 0.00 0.00 99 1030.0
20260510091050 11 49 0.0 0.0 0.00 0.00 0.00 99 1030.0
20260510090548 11 39 0.0 0.0 0.00 0.00 0.00 99 1030.3
20260510090043 11 42 0.0 0.0 0.00 0.00 0.00 99 1030.3
20260510085538 11 48 0.0 0.0 0.00 0.00 0.00 99 1030.2
20260510085034 11 48 0.0 0.0 0.00 0.00 0.00 99 1030.2
20260510084531 11 48 0.0 0.0 0.00 0.00 0.00 99 1030.4
20260510084028 11 49 0.0 0.0 0.00 0.00 0.00 99 1030.3
20260510083525 11 50 0.0 0.0 0.00 0.00 0.00 99 1030.0
20260510083021 11 53 0.0 0.0 0.00 0.00 0.00 99 1030.2
20260510082518 11 4 0.0 0.0 0.00 0.00 0.00 99 1030.2
20260510082018 11 15 0.0 0.0 0.00 0.00 0.00 99 1029.7
20260510081514 11 15 0.0 0.0 0.00 0.00 0.00 99 1029.9
20260510081010 11 15 0.0 0.0 0.00 0.00 0.00 99 1029.6
20260510080508 11 14 0.0 0.0 0.00 0.00 0.00 98 1029.8
20260510080006 11 14 0.0 0.0 0.00 0.00 0.00 98 1029.8
20260510075503 11 20 0.0 0.0 0.00 0.00 0.00 99 1029.6
20260510075000 12 20 0.0 0.0 0.00 0.00 0.00 98 1029.4
20260510074458 12 32 0.0 0.0 0.00 0.00 0.00 98 1029.3
20260510073953 12 12 0.0 0.0 0.00 0.00 0.00 99 1029.3
20260510073449 12 17 0.0 0.0 0.00 0.00 0.00 98 1029.5
20260510072945 12 22 0.0 0.0 0.00 0.00 0.00 98 1029.9
20260510072442 12 26 0.0 0.0 0.00 0.00 0.00 99 1029.3
20260510071938 12 19 0.0 0.0 0.00 0.00 0.00 99 1029.7
20260510071434 12 31 0.0 0.0 0.00 0.00 0.00 99 1029.8
20260510070933 12 0 0.0 0.0 0.00 0.00 0.00 99 1029.6
20260510070430 12 354 0.0 0.0 0.00 0.00 0.00 99 1029.9
20260510065925 12 2 0.0 0.0 0.00 0.00 0.00 99 1029.8
20260510065422 12 6 0.0 0.0 0.00 0.00 0.00 99 1029.9
20260510064918 12 15 0.0 0.0 0.00 0.00 0.00 99 1030.0
20260510064416 12 15 0.0 0.0 0.00 0.00 0.00 99 1029.9
20260510063913 12 20 0.0 0.0 0.00 0.00 0.00 99 1029.8
20260510063409 12 19 0.0 0.0 0.00 0.00 0.00 99 1029.7
20260510062907 12 20 0.0 0.0 0.00 0.00 0.00 99 1029.8
20260510062401 12 12 0.0 0.0 0.00 0.00 0.00 99 1029.6
20260510061857 12 12 0.0 0.0 0.00 0.00 0.00 99 1029.8
20260510061354 12 21 0.0 0.0 0.00 0.00 0.00 99 1029.5
20260510060850 12 10 0.0 0.0 0.00 0.00 0.00 99 1029.5
20260510060347 12 10 0.0 0.0 0.00 0.00 0.00 99 1029.5
20260510055843 12 10 0.0 0.0 0.00 0.00 0.00 99 1029.6
20260510055343 12 8 0.0 0.0 0.00 0.00 0.00 98 1029.5
20260510054842 12 4 0.0 0.0 0.00 0.00 0.00 98 1029.7
20260510054338 12 356 0.0 0.0 0.00 0.00 0.00 98 1029.7
20260510053833 12 359 0.0 0.0 0.00 0.00 0.00 98 1029.6
20260510053329 12 12 0.0 0.0 0.00 0.00 0.00 98 1029.4
20260510052825 12 13 0.0 0.0 0.00 0.00 0.00 97 1029.3
20260510052321 12 18 0.0 0.0 0.00 0.00 0.00 97 1029.4
20260510051818 12 19 0.0 0.0 0.00 0.00 0.00 97 1029.2
20260510051314 12 38 0.0 0.0 0.00 0.00 0.00 97 1029.4
20260510050811 12 23 0.0 0.0 0.00 0.00 0.00 98 1029.3
20260510050308 12 22 0.0 0.0 0.00 0.00 0.00 97 1029.3
20260510045805 12 22 0.0 0.0 0.00 0.00 0.00 97 1029.2
20260510045305 12 22 0.0 0.0 0.00 0.00 0.00 96 1029.2
20260510044759 12 22 0.0 0.0 0.00 0.00 0.00 96 1029.2
20260510044256 12 22 0.0 0.0 0.00 0.00 0.00 96 1029.2
20260510043752 12 22 0.0 0.0 0.00 0.00 0.00 96 1029.3
20260510043248 12 22 0.0 0.0 0.00 0.00 0.00 95 1029.3
20260510042746 12 23 0.0 0.0 0.00 0.00 0.00 94 1029.3
20260510042241 12 23 0.0 0.0 0.00 0.00 0.00 94 1029.3
20260510041738 12 24 0.0 0.0 0.00 0.00 0.00 95 1029.3
20260510041236 12 23 0.0 0.0 0.00 0.00 0.00 95 1029.3
20260510040733 12 30 0.0 0.0 0.00 0.00 0.00 93 1029.2
20260510040230 12 30 0.0 0.0 0.00 0.00 0.00 92 1029.2
20260510035725 12 30 0.0 0.0 0.00 0.00 0.00 92 1029.3
20260510035221 13 31 0.0 0.0 0.00 0.00 0.00 92 1029.3
20260510034717 13 35 0.0 0.0 0.00 0.00 0.00 91 1029.2
20260510034215 13 37 0.0 0.0 0.00 0.00 0.00 92 1029.2
20260510033711 13 23 0.0 0.0 0.00 0.00 0.00 92 1029.3
20260510033209 13 23 0.0 0.0 0.00 0.00 0.00 92 1029.3
20260510032705 13 23 0.0 0.0 0.00 0.00 0.00 93 1029.2
20260510032200 13 19 0.0 0.0 0.00 0.00 0.00 92 1029.2
20260510031655 13 19 0.0 0.0 0.00 0.00 0.00 92 1029.1
20260510031152 13 19 0.0 0.0 0.00 0.00 0.00 92 1029.2
20260510030646 13 19 0.0 0.0 0.00 0.00 0.00 92 1029.3
20260510030144 13 19 0.0 0.0 0.00 0.00 0.00 92 1029.3
20260510025641 13 25 0.0 0.0 0.00 0.00 0.00 92 1029.0
20260510025138 13 31 0.0 0.0 0.00 0.00 0.00 90 1029.3
20260510024635 15 34 0.0 0.0 0.00 0.00 0.00 90 1028.9
20260510024132 14 31 0.0 0.0 0.00 0.00 0.00 89 1029.0
20260510023627 15 25 0.0 0.0 0.00 0.00 0.00 89 1028.8
20260510023125 15 27 0.0 0.0 0.00 0.00 0.00 89 1028.9
20260510022625 15 26 0.0 0.0 0.00 0.00 0.00 90 1028.8
20260510022120 15 26 0.0 0.0 0.00 0.00 0.00 89 1028.8
20260510021616 15 26 0.0 0.0 0.00 0.00 0.00 89 1028.5
20260510021114 15 33 0.0 0.0 0.00 0.00 0.00 89 1028.7
20260510020613 15 33 0.0 0.0 0.00 0.00 0.00 88 1028.7
20260510020109 15 34 0.0 0.0 0.00 0.00 0.00 87 1028.6
20260510015605 15 27 0.0 0.0 0.00 0.00 0.00 85 1028.7
20260510015102 16 28 0.0 0.0 0.00 0.00 0.00 86 1028.5
20260510014558 16 28 0.0 0.0 0.00 0.00 0.00 85 1028.3
20260510014055 16 28 0.0 0.0 0.00 0.00 0.00 84 1028.4
20260510013549 16 28 0.0 0.0 0.00 0.00 0.00 85 1028.2
20260510013046 16 28 0.0 0.0 0.00 0.00 0.00 84 1028.3
20260510012539 16 33 0.0 0.0 0.00 0.00 0.00 83 1028.2
20260510012036 16 35 0.0 0.0 0.00 0.00 0.00 84 1027.8
20260510011536 17 38 0.0 0.0 0.00 0.00 0.00 83 1028.0
20260510011032 17 44 0.0 0.0 0.00 0.00 0.00 82 1027.9
20260510010529 17 26 0.0 0.0 0.00 0.00 0.00 78 1027.8
20260510010026 18 27 0.0 0.0 0.00 0.00 0.00 80 1027.7
20260510005521 18 20 0.0 0.0 0.00 0.00 0.00 77 1027.8
20260510005019 18 35 0.0 0.0 0.00 0.00 0.00 76 1027.7
20260510004516 19 41 0.0 0.0 0.00 0.00 0.00 75 1027.7
20260510004015 20 50 0.0 0.0 0.00 0.00 0.00 72 1027.6
20260510003510 21 35 0.0 0.0 0.00 0.00 0.00 70 1027.5
20260510003006 22 37 0.0 0.0 0.00 0.00 0.00 71 1027.5
20260510002502 23 32 0.0 0.0 0.00 0.00 0.00 68 1027.5
20260510001959 23 37 0.0 0.0 0.00 0.00 0.00 62 1027.4
20260510001456 24 38 0.0 0.0 0.00 0.00 0.00 65 1027.5
20260510000954 26 32 0.0 0.0 0.00 0.00 0.00 61 1027.6
20260510000449 27 24 0.0 0.0 0.00 0.00 0.00 51 1027.5
20260509235947 26 21 0.0 0.0 0.00 0.00 0.00 50 1027.3
20260509235443 27 30 0.0 1.6 0.00 0.00 0.00 52 1027.2
20260509234940 28 33 0.0 0.0 0.00 0.00 0.00 49 1027.3
20260509234436 29 22 0.0 0.0 0.00 0.00 0.00 38 1027.1
20260509233934 30 33 0.0 0.0 0.00 0.00 0.00 35 1027.0
20260509233432 28 9 0.0 0.0 0.00 0.00 0.00 34 1027.0
20260509232927 27 25 0.0 1.6 0.00 0.00 0.00 30 1026.8
20260509232426 29 45 3.2 3.2 0.00 0.00 0.00 33 1027.2
20260509231921 28 340 0.0 1.6 0.00 0.00 0.00 31 1027.1
20260509231418 28 4 0.0 1.6 0.00 0.00 0.00 33 1027.1
20260509230916 28 22 1.6 1.6 0.00 0.00 0.00 35 1027.1
20260509230413 27 38 1.6 3.2 0.00 0.00 0.00 32 1027.1
20260509225908 27 44 4.8 4.8 0.00 0.00 0.00 34 1026.9
20260509225405 27 33 3.2 3.2 0.00 0.00 0.00 36 1027.1
20260509224901 30 11 3.2 3.2 0.00 0.00 0.00 35 1027.0
20260509224357 29 29 0.0 0.0 0.00 0.00 0.00 36 1027.0
20260509223855 30 344 0.0 0.0 0.00 0.00 0.00 37 1027.1
20260509223351 29 15 1.6 1.6 0.00 0.00 0.00 37 1027.0
20260509222849 30 9 1.6 1.6 0.00 0.00 0.00 34 1027.0
20260509222349 30 329 0.0 0.0 0.00 0.00 0.00 37 1027.2
20260509221844 30 351 1.6 1.6 0.00 0.00 0.00 34 1027.0
20260509221342 29 359 0.0 1.6 0.00 0.00 0.00 35 1027.1
20260509220843 28 10 0.0 0.0 0.00 0.00 0.00 35 1027.2
20260509220339 29 136 3.2 3.2 0.00 0.00 0.00 34 1027.3
20260509215834 29 13 0.0 0.0 0.00 0.00 0.00 34 1027.2
20260509215331 29 5 0.0 0.0 0.00 0.00 0.00 36 1027.2
20260509214828 29 9 1.6 1.6 0.00 0.00 0.00 35 1027.3
20260509214326 29 22 1.6 3.2 0.00 0.00 0.00 40 1027.1
20260509213823 29 13 0.0 0.0 0.00 0.00 0.00 38 1026.9
20260509213318 28 347 1.6 1.6 0.00 0.00 0.00 40 1027.0
20260509212816 29 28 4.8 4.8 0.00 0.00 0.00 39 1027.0
20260509212313 28 339 1.6 1.6 0.00 0.00 0.00 42 1026.9
20260509211809 30 24 6.4 8.0 0.00 0.00 0.00 42 1026.8
20260509211305 29 10 0.0 0.0 0.00 0.00 0.00 41 1026.8
20260509210801 28 1 0.0 0.0 0.00 0.00 0.00 42 1027.0
20260509210300 29 30 0.0 1.6 0.00 0.00 0.00 42 1026.8
20260509205759 28 5 0.0 0.0 0.00 0.00 0.00 39 1026.9
20260509205253 28 7 1.6 1.6 0.00 0.00 0.00 43 1026.8
20260509204750 29 13 3.2 3.2 0.00 0.00 0.00 44 1026.9
20260509204246 28 10 1.6 3.2 0.00 0.00 0.00 47 1026.7
20260509203742 28 20 1.6 1.6 0.00 0.00 0.00 45 1026.8
20260509203240 28 26 0.0 1.6 0.00 0.00 0.00 45 1027.1